"Pseudo-MPEC" for P11JCqe

Created 2023 Sep 19 16:22:22 UT using Find_Orb

Click here for an explanation of pseudo-MPECs

 
 Astrometry: 
     P11JCqe* C2023 09 15bM9o`rDEywV!_@Tj1qRd#Q0VWIqx1xk_c`)b_o'#55G5?STv^dSpF51
     P11JCqe  C2023 09 15gJnyI:Yb#@k@Yq8)Rrg=s#613Of4j);mwOUoFtAstrometry(q3eF51
     P11JCqe  C2023 09 15I)^71n7k%$/TDDph'f\$;kXdlSFc@23IJ$I[L:LQ5_Y/+`OAj2w.F51
     P11JCqe  C2023 09 15$*UBredacted;JAUsk3v_7,clickj/A)LU81oBR42deuCo*e?KtlF51
     P11JCqe KC2023 09 15p-BPF3\jCWsI2eZ(-2ptP[IsPS8IX2oNs7Xs%ncHK6K8+tcqj7!KF51
     P11JCqe  C2023 09 17`OU9g$KTMSM1!C%dE+!pCWUqtLaf(fLWA@xykRLhereEZjV[h6y3F51
     P11JCqe  C2023 09 17AT*e_5`fPLnR%7r#60cD`sYN/Xb*glR+klqAr?7%xNwofZX0A,ioF51
     P11JCqe 3C2023 09 18o!1TB#VucA4w:Ti?R=p.\fNpx87*[aT]r.%forPT9@v'rj[achX3T14
     P11JCqe 3C2023 09 18PnS%eR=V6Sexplanation=D6jRo@qJ3k:=DPX-r7t_N[JZS'J,xoT14
     P11JCqe 3C2023 09 18BhGkbroOoD5mtnTF_OHD#*o]]PaCNVeqX03*cO-8C[,w'EL)i)g8T14

Station data:
(F51) Pan-STARRS 1, Haleakala  (N20.707234 W156.255910)  US/Hawaii.
   Observers J. Bulger, T. Lowe, A. Schultz, M. Willman. Measurers K.
   Chambers, S. Chastel, T. de Boer, L. Denneau, J. Fairlamb, H. Flewelling,
   M. Huber, C.-C. Lin, E. Magnier, Y. Ramanjooloo, R. Wainscoat, R. Weryk.
   1.8-m Ritchey-Chrétien + CCD.
(T14) Mauna Kea-UH/Tholen NEO Follow-Up (CFHT)  (N19.825252 W155.468876)
   US/Hawaii.  Observer R. Weryk. 3.6-m Canada-France-Hawaii Telescope.

Orbital elements:  P11JCqe
   Perihelion 2023 Sep 3.54836 +/- 0.547 TT = 13:09:38 (JD 2460191.04836)
Epoch 2023 Sep 18.0 TT = JDT 2460205.5   Earth MOID: 0.3414   Ma: 0.0313
M   4.46828654 +/- 0.17             (J2000 ecliptic)             AutoNEOCP
n   0.30918888 +/- 0.00266          Peri.  298.64783 +/- 0.6
a   2.16597511 +/- 0.0124           Node    48.29043 +/- 0.26
e   0.3848245 +/- 0.00254           Incl.    5.84605 +/- 0.048
P   3.19                   H 23.47  G  0.15   U  8.8
q 1.33245461 +/- 0.00263    Q 2.99949561 +/- 0.0226
From 10 observations 2023 Sept. 15-18; mean residual 0".07
Residuals in arcseconds: 
230915 F51  .06+  .00     230915 F51  .05+  .10+    230918 T14  .01+  .03+    
230915 F51  .07-  .04-    230917 F51  .12-  .00     230918 T14  .02+  .04+    
230915 F51  .11-  .03-    230917 F51  .15+  .01-    
230915 F51  .07+  .02-    230918 T14  .04-  .06-    

Ephemerides (geocentric):
Date (UTC) HH   RA             Dec           delta  r     elong  mag " sig PA
---- --------  ------------   ------------  ------ ------ -----  --- --------
2023 09 19 16  00 57 37.433   -12 20 43.06  .35327 1.3407 159.2 22.7 .154 102
2023 09 19 17  00 57 36.935   -12 20 14.78  .35328 1.3408 159.2 22.7 .162 100
2023 09 19 18  00 57 36.435   -12 19 46.46  .35329 1.3408 159.2 22.7 .171  99
2023 09 19 19  00 57 35.931   -12 19 18.12  .35330 1.3409 159.3 22.7 .180  97
2023 09 19 20  00 57 35.423   -12 18 49.74  .35330 1.3409 159.3 22.7 .189  96
2023 09 19 21  00 57 34.912   -12 18 21.34  .35331 1.3410 159.3 22.7 .198  95
2023 09 19 22  00 57 34.397   -12 17 52.90  .35332 1.3410 159.4 22.7 .207  94
2023 09 19 23  00 57 33.879   -12 17 24.44  .35333 1.3410 159.4 22.7 .217  93
2023 09 20 00  00 57 33.358   -12 16 55.94  .35334 1.3411 159.4 22.7 .226  92
2023 09 20 01  00 57 32.833   -12 16 27.41  .35335 1.3411 159.4 22.7 .236  91
2023 09 20 02  00 57 32.304   -12 15 58.86  .35336 1.3412 159.5 22.7 .246  91
2023 09 20 03  00 57 31.773   -12 15 30.27  .35337 1.3412 159.5 22.7 .256  90
2023 09 20 04  00 57 31.237   -12 15 01.65  .35338 1.3413 159.5 22.7 .266  89
2023 09 20 05  00 57 30.699   -12 14 33.01  .35339 1.3413 159.6 22.7 .277  88
2023 09 20 06  00 57 30.157   -12 14 04.33  .35340 1.3413 159.6 22.7 .287  88
2023 09 20 07  00 57 29.611   -12 13 35.62  .35341 1.3414 159.6 22.7 .298  87
2023 09 20 08  00 57 29.063   -12 13 06.88  .35342 1.3414 159.6 22.7 .309  87
2023 09 20 09  00 57 28.510   -12 12 38.11  .35343 1.3415 159.7 22.7 .320  86
2023 09 20 10  00 57 27.955   -12 12 09.32  .35344 1.3415 159.7 22.7 .331  86
2023 09 20 11  00 57 27.396   -12 11 40.49  .35345 1.3416 159.7 22.7 .343  85
2023 09 20 12  00 57 26.834   -12 11 11.63  .35346 1.3416 159.8 22.7 .354  85
2023 09 20 13  00 57 26.268   -12 10 42.74  .35347 1.3417 159.8 22.7 .365  84
2023 09 20 14  00 57 25.700   -12 10 13.82  .35348 1.3417 159.8 22.7 .377  84
2023 09 20 15  00 57 25.127   -12 09 44.87  .35350 1.3417 159.8 22.7 .389  84
2023 09 20 16  00 57 24.552   -12 09 15.89  .35351 1.3418 159.9 22.7 .401  83
2023 09 20 17  00 57 23.973   -12 08 46.88  .35352 1.3418 159.9 22.7 .413  83
2023 09 20 18  00 57 23.391   -12 08 17.84  .35353 1.3419 159.9 22.7 .425  83
2023 09 20 19  00 57 22.806   -12 07 48.77  .35355 1.3419 160.0 22.7 .437  82
2023 09 20 20  00 57 22.217   -12 07 19.66  .35356 1.3420 160.0 22.7 .450  82
2023 09 20 21  00 57 21.625   -12 06 50.53  .35357 1.3420 160.0 22.7 .462  82
2023 09 20 22  00 57 21.030   -12 06 21.37  .35359 1.3421 160.0 22.7 .475  81
2023 09 20 23  00 57 20.432   -12 05 52.18  .35360 1.3421 160.1 22.7 .488  81
2023 09 21 00  00 57 19.830   -12 05 22.96  .35361 1.3422 160.1 22.7 .500  81
2023 09 21 01  00 57 19.226   -12 04 53.70  .35363 1.3422 160.1 22.7 .513  81
2023 09 21 02  00 57 18.618   -12 04 24.42  .35364 1.3422 160.1 22.7 .526  80
2023 09 21 03  00 57 18.006   -12 03 55.11  .35366 1.3423 160.2 22.7 .540  80
2023 09 21 04  00 57 17.392   -12 03 25.77  .35367 1.3423 160.2 22.7 .553  80
2023 09 21 05  00 57 16.775   -12 02 56.39  .35369 1.3424 160.2 22.7 .566  80
2023 09 21 06  00 57 16.154   -12 02 26.99  .35370 1.3424 160.3 22.7 .580  80
2023 09 21 07  00 57 15.530   -12 01 57.55  .35372 1.3425 160.3 22.7 .594  79
2023 09 21 08  00 57 14.903   -12 01 28.09  .35373 1.3425 160.3 22.7 .607  79
2023 09 21 09  00 57 14.273   -12 00 58.59  .35375 1.3426 160.3 22.7 .621  79
2023 09 21 10  00 57 13.639   -12 00 29.07  .35377 1.3426 160.4 22.7 .635  79
2023 09 21 11  00 57 13.003   -11 59 59.51  .35378 1.3427 160.4 22.7 .649  79
2023 09 21 12  00 57 12.364   -11 59 29.93  .35380 1.3427 160.4 22.7 .663  78
2023 09 21 13  00 57 11.721   -11 59 00.31  .35382 1.3428 160.5 22.7 .677  78
2023 09 21 14  00 57 11.075   -11 58 30.67  .35383 1.3428 160.5 22.7 .692  78
2023 09 21 15  00 57 10.426   -11 58 00.99  .35385 1.3429 160.5 22.7 .706  78